GW6483 Weather Reports


time (UTC)temp
C
wind
direction
speed
KPH
gust
KPH
rain 1hr
cm
rain 24hr
cm
rain mn
cm
humidity
%
barometer
mb
20260505025119 25 306 3.2 4.8 0.00 0.00 0.00 61 1015.0
20260505024619 25 65 6.4 9.7 0.00 0.00 0.00 61 1016.0
20260505024117 26 91 8.0 8.0 0.00 0.00 0.00 61 1016.0
20260505023616 26 57 4.8 6.4 0.00 0.00 0.00 60 1016.0
20260505023118 27 220 3.2 8.0 0.00 0.00 0.00 60 1016.0
20260505022621 26 321 0.0 4.8 0.00 0.00 0.00 62 1016.0
20260505022117 26 22 3.2 4.8 0.00 0.00 0.00 64 1016.0
20260505021624 26 238 3.2 4.8 0.00 0.00 0.00 63 1016.0
20260505021119 26 185 3.2 8.0 0.00 0.00 0.00 62 1016.0
20260505020620 25 122 0.0 3.2 0.00 0.00 0.00 64 1016.0
20260505020117 25 223 1.6 3.2 0.00 0.00 0.00 63 1016.0
20260505015616 25 235 1.6 6.4 0.00 0.00 0.00 65 1016.0
20260505015115 26 99 4.8 8.0 0.00 0.00 0.00 64 1016.0
20260505014616 25 144 1.6 4.8 0.00 0.00 0.00 65 1017.0
20260505014115 25 218 1.6 4.8 0.00 0.00 0.00 66 1016.0
20260505013615 26 182 6.4 6.4 0.00 0.00 0.00 63 1017.0
20260505013116 26 354 3.2 4.8 0.00 0.00 0.00 63 1017.0
20260505012615 26 232 6.4 8.0 0.00 0.00 0.00 63 1017.0
20260505012115 26 183 4.8 8.0 0.00 0.00 0.00 64 1017.0
20260505011616 25 16 4.8 4.8 0.00 0.00 0.00 66 1017.0
20260505011117 25 21 4.8 4.8 0.00 0.00 0.00 67 1017.0
20260505010615 24 316 3.2 4.8 0.00 0.00 0.00 69 1017.0
20260505010119 25 336 3.2 6.4 0.00 0.00 0.00 68 1018.0
20260505005619 25 288 4.8 6.4 0.00 0.00 0.00 67 1018.0
20260505005117 25 208 8.0 9.7 0.00 0.00 0.00 68 1018.0
20260505004615 23 115 0.0 8.0 0.00 0.00 0.00 72 1018.0
20260505004115 24 37 8.0 9.7 0.00 0.00 0.00 71 1018.0
20260505003615 24 76 4.8 4.8 0.00 0.00 0.00 72 1018.0
20260505003115 24 166 6.4 8.0 0.00 0.00 0.00 73 1018.0
20260505002615 24 146 3.2 4.8 0.00 0.00 0.00 74 1018.0
20260505002115 24 283 3.2 4.8 0.00 0.00 0.00 73 1018.0
20260505001615 24 184 9.7 9.7 0.00 0.00 0.00 73 1018.0
20260505001115 23 204 6.4 8.0 0.00 0.00 0.00 75 1018.0
20260505000616 23 316 1.6 8.0 0.00 0.00 0.00 75 1018.0
20260505000115 23 241 6.4 6.4 0.00 0.00 0.00 74 1018.0
20260504235615 23 189 3.2 8.0 0.00 0.00 0.00 76 1018.0
20260504235116 23 298 1.6 6.4 0.00 0.00 0.00 78 1018.0
20260504234615 22 261 0.0 6.4 0.00 0.00 0.00 80 1018.0
20260504234115 22 260 8.0 8.0 0.00 0.00 0.00 80 1018.0
20260504233616 22 225 6.4 8.0 0.00 0.00 0.00 81 1018.0
20260504233115 22 244 6.4 9.7 0.00 0.00 0.00 82 1019.0
20260504232616 22 186 1.6 9.7 0.00 0.00 0.00 82 1018.0
20260504232115 22 197 4.8 6.4 0.00 0.00 0.00 83 1018.0
20260504231615 21 303 0.0 9.7 0.00 0.00 0.00 84 1019.0
20260504231115 21 170 4.8 9.7 0.00 0.00 0.00 84 1019.0
20260504230615 21 130 1.6 8.0 0.00 0.00 0.00 86 1018.0
20260504230121 21 273 0.0 8.0 0.00 0.00 0.00 87 1018.0
20260504225615 21 218 3.2 8.0 0.00 0.00 0.00 88 1018.0
20260504225115 20 199 4.8 9.7 0.00 0.00 0.00 89 1018.0
20260504224617 20 189 6.4 11.3 0.00 0.00 0.00 90 1018.0
20260504224117 20 158 3.2 9.7 0.00 0.00 0.00 91 1018.0
20260504223615 20 174 6.4 9.7 0.00 0.00 0.00 91 1018.0
20260504223116 20 209 4.8 4.8 0.00 0.00 0.00 96 1018.0
20260504222615 20 153 4.8 8.0 0.00 0.00 0.00 97 1018.0
20260504222116 19 225 0.0 6.4 0.00 0.00 0.00 98 1018.0
20260504221616 19 159 4.8 4.8 0.00 0.00 0.00 98 1018.0
20260504221116 18 229 1.6 9.7 0.00 0.00 0.00 98 1018.0
20260504220615 18 148 8.0 8.0 0.00 0.00 0.00 98 1018.0
20260504220115 18 173 1.6 4.8 0.00 0.00 0.00 98 1018.0
20260504215615 18 253 4.8 6.4 0.00 0.00 0.00 98 1018.0
20260504215115 18 126 3.2 4.8 0.00 0.00 0.00 98 1018.0
20260504214615 18 175 1.6 4.8 0.00 0.00 0.00 98 1018.0
20260504214115 18 248 0.0 3.2 0.00 0.00 0.00 98 1018.0
20260504213615 18 166 0.0 4.8 0.00 0.00 0.00 98 1018.0
20260504213117 18 139 4.8 8.0 0.00 0.00 0.00 98 1018.0
20260504212616 18 103 3.2 4.8 0.00 0.00 0.00 98 1018.0
20260504212115 18 231 3.2 6.4 0.00 0.00 0.00 98 1018.0
20260504211618 18 161 4.8 6.4 0.00 0.00 0.00 98 1018.0
20260504211116 17 266 1.6 6.4 0.00 0.00 0.00 98 1018.0
20260504210616 17 188 1.6 4.8 0.00 0.00 0.00 98 1018.0
20260504210115 17 182 4.8 4.8 0.00 0.00 0.00 98 1018.0
20260504205615 17 145 6.4 8.0 0.00 0.00 0.00 98 1018.0
20260504205116 17 177 3.2 4.8 0.00 0.00 0.00 98 1018.0
20260504204615 17 219 1.6 4.8 0.00 0.00 0.00 98 1018.0
20260504204115 17 106 0.0 3.2 0.00 0.00 0.00 98 1018.0
20260504203618 17 134 1.6 6.4 0.00 0.00 0.00 98 1018.0
20260504203115 17 163 4.8 4.8 0.00 0.00 0.00 98 1018.0
20260504202617 17 99 1.6 4.8 0.00 0.00 0.00 98 1018.0
20260504202115 17 221 1.6 8.0 0.00 0.00 0.00 98 1018.0
20260504201617 17 178 3.2 6.4 0.00 0.00 0.00 98 1018.0
20260504201116 17 149 4.8 4.8 0.00 0.00 0.00 98 1017.0
20260504200616 17 167 4.8 8.0 0.00 0.00 0.00 98 1017.0
20260504200115 17 220 4.8 8.0 0.00 0.00 0.00 98 1017.0
20260504195616 17 193 3.2 4.8 0.00 0.00 0.00 98 1017.0
20260504195117 17 252 3.2 4.8 0.00 0.00 0.00 98 1017.0
20260504194617 17 213 3.2 4.8 0.00 0.00 0.00 98 1017.0
20260504194118 17 45 1.6 4.8 0.00 0.00 0.00 98 1017.0
20260504193616 17 167 4.8 6.4 0.00 0.00 0.00 97 1017.0
20260504193115 17 179 0.0 4.8 0.00 0.00 0.00 98 1017.0
20260504192616 17 143 3.2 4.8 0.00 0.00 0.00 98 1017.0
20260504191630 17 239 1.6 6.4 0.00 0.00 0.00 97 1017.0
20260504191115 17 161 0.0 4.8 0.00 0.00 0.00 97 1017.0
20260504190615 17 167 1.6 3.2 0.00 0.00 0.00 97 1017.0
20260504190115 17 140 3.2 4.8 0.00 0.00 0.00 97 1017.0
20260504185616 17 129 3.2 4.8 0.00 0.00 0.00 97 1017.0
20260504185121 17 220 0.0 3.2 0.00 0.00 0.00 97 1017.0
20260504184615 17 161 1.6 3.2 0.00 0.00 0.00 97 1017.0
20260504184115 17 123 3.2 4.8 0.00 0.00 0.00 97 1017.0
20260504183615 17 89 0.0 3.2 0.00 0.00 0.00 97 1017.0
20260504183115 17 140 1.6 3.2 0.00 0.00 0.00 97 1016.0
20260504182615 17 187 1.6 4.8 0.00 0.00 0.00 97 1017.0
20260504182115 17 237 3.2 3.2 0.00 0.00 0.00 97 1016.0
20260504181616 17 151 1.6 4.8 0.00 0.00 0.00 97 1017.0
20260504181116 17 206 0.0 3.2 0.00 0.00 0.00 97 1016.0
20260504180616 17 98 1.6 3.2 0.00 0.00 0.00 97 1016.0
20260504180115 17 211 1.6 4.8 0.00 0.00 0.00 97 1016.0
20260504175616 18 300 0.0 3.2 0.00 0.00 0.00 97 1016.0
20260504175116 18 262 1.6 3.2 0.00 0.00 0.00 97 1016.0
20260504174616 18 279 1.6 3.2 0.00 0.00 0.00 97 1016.0
20260504174118 18 180 3.2 3.2 0.00 0.00 0.00 97 1016.0
20260504173616 18 180 0.0 3.2 0.00 0.00 0.00 97 1017.0
20260504173116 18 267 3.2 4.8 0.00 0.00 0.00 97 1017.0
20260504172616 18 278 3.2 6.4 0.00 0.00 0.00 97 1016.0
20260504172116 18 175 3.2 3.2 0.00 0.00 0.00 97 1016.0
20260504171616 18 214 1.6 6.4 0.00 0.00 0.00 97 1016.0
20260504171115 18 273 1.6 4.8 0.00 0.00 0.00 97 1016.0
20260504170616 18 247 3.2 4.8 0.00 0.00 0.00 97 1017.0
20260504170115 18 235 1.6 4.8 0.00 0.00 0.00 97 1016.0
20260504160117 18 187 3.2 4.8 0.00 0.00 0.00 96 1017.0
20260504151116 18 235 0.0 3.2 0.00 0.00 0.00 95 1017.0
20260504150616 18 40 1.6 3.2 0.00 0.00 0.00 95 1017.0
20260504150116 19 180 3.2 3.2 0.00 0.00 0.00 95 1017.0
20260504141117 18 146 3.2 4.8 0.00 0.00 0.00 95 1017.0
20260504140620 18 300 1.6 4.8 0.00 0.00 0.00 95 1018.0
20260504140120 18 147 3.2 4.8 0.00 0.00 0.00 95 1018.0
20260504130619 19 224 3.2 4.8 0.00 0.00 0.00 93 1018.0
20260504130119 19 132 0.0 6.4 0.00 0.00 0.00 93 1018.0
20260504120115 20 122 3.2 4.8 0.00 0.00 0.00 91 1018.0
20260504110615 20 111 3.2 8.0 0.00 0.00 0.00 91 1019.0
20260504110115 20 112 6.4 8.0 0.00 0.00 0.00 91 1019.0
20260504100615 20 121 3.2 4.8 0.00 0.00 0.00 90 1019.0
20260504100115 21 110 1.6 4.8 0.00 0.00 0.00 89 1018.0
20260504090116 21 88 6.4 8.0 0.00 0.00 0.00 86 1018.0
20260504081616 21 92 6.4 8.0 0.00 0.00 0.00 83 1017.0
20260504081115 22 113 4.8 6.4 0.00 0.00 0.00 83 1017.0
20260504080616 22 102 4.8 6.4 0.00 0.00 0.00 82 1017.0
20260504080115 22 85 3.2 8.0 0.00 0.00 0.00 82 1017.0
20260504070116 23 28 4.8 11.3 0.00 0.00 0.00 76 1017.0
20260504060115 23 105 8.0 9.7 0.00 0.00 0.00 72 1016.0
20260504050615 25 111 14.5 16.1 0.00 0.00 0.00 68 1016.0
20260504050115 25 48 11.3 14.5 0.00 0.00 0.00 67 1016.0
20260504045616 25 97 8.0 11.3 0.00 0.00 0.00 67 1016.0
20260504045117 25 105 8.0 17.7 0.00 0.00 0.00 66 1016.0
20260504044615 25 126 6.4 11.3 0.00 0.00 0.00 67 1016.0
20260504044115 25 57 11.3 19.3 0.00 0.00 0.00 67 1016.0
20260504043616 25 85 6.4 19.3 0.00 0.00 0.00 67 1016.0
20260504043115 26 86 12.9 17.7 0.00 0.00 0.00 64 1016.0
20260504042615 26 119 6.4 9.7 0.00 0.00 0.00 64 1016.0
20260504042116 25 71 9.7 9.7 0.00 0.00 0.00 65 1016.0
20260504041616 25 53 3.2 8.0 0.00 0.00 0.00 65 1016.0
20260504041115 25 71 14.5 14.5 0.00 0.00 0.00 63 1016.0
20260504040616 25 56 9.7 14.5 0.00 0.00 0.00 63 1016.0
20260504040116 26 41 4.8 14.5 0.00 0.00 0.00 62 1016.0
20260504035615 26 50 8.0 12.9 0.00 0.00 0.00 61 1016.0
20260504035116 26 54 8.0 12.9 0.00 0.00 0.00 60 1016.0
20260504034616 25 80 4.8 9.7 0.00 0.00 0.00 62 1016.0
20260504034115 26 46 8.0 17.7 0.00 0.00 0.00 62 1016.0
20260504033615 26 71 14.5 17.7 0.00 0.00 0.00 61 1016.0
20260504033116 25 63 11.3 16.1 0.00 0.00 0.00 59 1016.0
20260504032615 25 52 8.0 16.1 0.00 0.00 0.00 61 1016.0
20260504032115 25 22 4.8 17.7 0.00 0.00 0.00 62 1017.0
20260504031615 26 76 11.3 17.7 0.00 0.00 0.00 60 1017.0
20260504031115 26 84 3.2 14.5 0.00 0.00 0.00 61 1017.0
20260504030615 26 70 9.7 14.5 0.00 0.00 0.00 64 1017.0
20260504030115 25 65 12.9 17.7 0.00 0.00 0.00 65 1017.0
20260504025615 25 93 6.4 16.1 0.00 0.00 0.00 66 1017.0